| time (UTC) | temp C | wind direction | speed KPH | gust KPH | rain 1hr cm | rain 24hr cm | rain mn cm | humidity % | barometer mb |
| 20260506202649 | 8 | 288 | 9.7 | 20.9 | 0.00 | 0.81 | 0.81 | 97 | 1009.9 |
| 20260506202145 | 8 | 290 | 12.9 | 22.5 | 0.00 | 0.81 | 0.81 | 97 | 1009.8 |
| 20260506201642 | 8 | 305 | 12.9 | 17.7 | 0.13 | 0.81 | 0.81 | 97 | 1009.8 |
| 20260506201138 | 8 | 301 | 4.8 | 16.1 | 0.13 | 0.81 | 0.81 | 97 | 1009.8 |
| 20260506200635 | 8 | 301 | 11.3 | 12.9 | 0.00 | 0.79 | 0.79 | 97 | 1009.9 |
| 20260506200132 | 8 | 305 | 8.0 | 11.3 | 0.00 | 0.79 | 0.79 | 97 | 1009.8 |
| 20260506195628 | 8 | 313 | 14.5 | 17.7 | 0.00 | 0.79 | 0.79 | 97 | 1010.0 |
| 20260506195125 | 8 | 322 | 9.7 | 12.9 | 0.00 | 0.79 | 0.79 | 97 | 1010.0 |
| 20260506194622 | 8 | 282 | 8.0 | 12.9 | 0.00 | 0.79 | 0.79 | 97 | 1009.7 |
| 20260506194118 | 8 | 282 | 6.4 | 9.7 | 0.00 | 0.79 | 0.79 | 97 | 1009.7 |
| 20260506193616 | 8 | 270 | 8.0 | 11.3 | 0.00 | 0.79 | 0.79 | 97 | 1009.8 |
| 20260506193114 | 8 | 307 | 4.8 | 9.7 | 0.00 | 0.79 | 0.79 | 97 | 1009.5 |
| 20260506192610 | 8 | 282 | 4.8 | 9.7 | 0.00 | 0.79 | 0.79 | 97 | 1009.5 |
| 20260506192106 | 8 | 297 | 4.8 | 9.7 | 0.00 | 0.79 | 0.79 | 97 | 1009.5 |
| 20260506191603 | 8 | 286 | 6.4 | 14.5 | 0.00 | 0.79 | 0.79 | 97 | 1009.7 |
| 20260506191059 | 8 | 296 | 8.0 | 9.7 | 0.00 | 0.79 | 0.79 | 97 | 1009.6 |
| 20260506190556 | 8 | 329 | 11.3 | 12.9 | 0.00 | 0.79 | 0.79 | 97 | 1009.6 |
| 20260506190053 | 8 | 315 | 8.0 | 12.9 | 0.00 | 0.79 | 0.79 | 97 | 1009.5 |
| 20260506185550 | 8 | 293 | 11.3 | 12.9 | 0.00 | 0.79 | 0.79 | 97 | 1009.5 |
| 20260506185047 | 8 | 308 | 6.4 | 11.3 | 0.00 | 0.79 | 0.79 | 97 | 1009.4 |
| 20260506184544 | 8 | 297 | 12.9 | 14.5 | 0.00 | 0.79 | 0.79 | 97 | 1009.5 |
| 20260506184036 | 8 | 265 | 9.7 | 12.9 | 0.00 | 0.79 | 0.79 | 97 | 1009.6 |
| 20260506183532 | 8 | 311 | 9.7 | 12.9 | 0.00 | 0.79 | 0.79 | 97 | 1009.4 |
| 20260506183029 | 9 | 302 | 9.7 | 12.9 | 0.00 | 0.79 | 0.79 | 97 | 1009.6 |
| 20260506182526 | 9 | 317 | 4.8 | 8.0 | 0.00 | 0.79 | 0.79 | 97 | 1009.4 |
| 20260506182023 | 9 | 299 | 6.4 | 9.7 | 0.00 | 0.79 | 0.79 | 97 | 1009.4 |
| 20260506181521 | 9 | 316 | 8.0 | 9.7 | 0.00 | 0.79 | 0.79 | 97 | 1009.3 |
| 20260506181018 | 8 | 308 | 8.0 | 11.3 | 0.00 | 0.79 | 0.79 | 97 | 1009.2 |
| 20260506180514 | 8 | 305 | 4.8 | 9.7 | 0.00 | 0.79 | 0.79 | 97 | 1009.2 |
| 20260506180011 | 8 | 330 | 4.8 | 11.3 | 0.18 | 0.79 | 0.79 | 97 | 1009.2 |
| 20260506175508 | 8 | 317 | 3.2 | 4.8 | 0.18 | 0.79 | 0.79 | 97 | 1009.3 |
| 20260506175004 | 8 | 9 | 4.8 | 12.9 | 0.00 | 0.76 | 0.76 | 97 | 1009.4 |
| 20260506174502 | 8 | 3 | 8.0 | 9.7 | 0.00 | 0.76 | 0.76 | 97 | 1009.4 |
| 20260506173957 | 8 | 335 | 4.8 | 12.9 | 0.00 | 0.76 | 0.76 | 97 | 1009.5 |
| 20260506173455 | 8 | 290 | 8.0 | 12.9 | 0.00 | 0.76 | 0.76 | 97 | 1009.5 |
| 20260506172947 | 8 | 319 | 8.0 | 12.9 | 0.13 | 0.76 | 0.76 | 97 | 1009.2 |
| 20260506172444 | 8 | 327 | 8.0 | 12.9 | 0.13 | 0.76 | 0.76 | 97 | 1009.3 |
| 20260506171940 | 8 | 313 | 16.1 | 16.1 | 0.00 | 0.74 | 0.74 | 97 | 1009.4 |
| 20260506171438 | 8 | 298 | 14.5 | 17.7 | 0.18 | 0.74 | 0.74 | 97 | 1009.3 |
| 20260506170936 | 8 | 310 | 14.5 | 14.5 | 0.18 | 0.74 | 0.74 | 97 | 1009.6 |
| 20260506170431 | 9 | 345 | 9.7 | 14.5 | 0.13 | 0.71 | 0.71 | 97 | 1009.3 |
| 20260506165924 | 10 | 296 | 8.0 | 9.7 | 0.13 | 0.71 | 0.71 | 97 | 1009.6 |
| 20260506165422 | 10 | 33 | 4.8 | 9.7 | 0.18 | 0.69 | 0.69 | 97 | 1009.3 |
| 20260506164913 | 11 | 323 | 8.0 | 11.3 | 0.18 | 0.69 | 0.69 | 97 | 1009.4 |
| 20260506164409 | 11 | 338 | 4.8 | 9.7 | 0.13 | 0.66 | 0.66 | 97 | 1009.5 |
| 20260506163907 | 12 | 12 | 1.6 | 4.8 | 0.30 | 0.66 | 0.66 | 98 | 1009.2 |
| 20260506163401 | 12 | 338 | 4.8 | 8.0 | 0.48 | 0.64 | 0.64 | 97 | 1009.2 |
| 20260506162856 | 12 | 304 | 4.8 | 8.0 | 0.36 | 0.58 | 0.58 | 97 | 1009.5 |
| 20260506162355 | 12 | 320 | 4.8 | 8.0 | 0.18 | 0.56 | 0.56 | 97 | 1009.3 |
| 20260506161852 | 12 | 300 | 6.4 | 8.0 | 0.13 | 0.53 | 0.53 | 97 | 1009.5 |
| 20260506161350 | 12 | 323 | 0.0 | 1.6 | 0.13 | 0.53 | 0.53 | 97 | 1009.4 |
| 20260506160847 | 12 | 311 | 0.0 | 1.6 | 0.18 | 0.51 | 0.51 | 97 | 1009.2 |
| 20260506160344 | 12 | 324 | 0.0 | 0.0 | 0.18 | 0.51 | 0.51 | 97 | 1009.5 |
| 20260506155843 | 12 | 22 | 0.0 | 0.0 | 0.13 | 0.48 | 0.48 | 97 | 1009.3 |
| 20260506155339 | 11 | 351 | 0.0 | 3.2 | 0.18 | 0.46 | 0.46 | 97 | 1009.1 |
| 20260506153456 | 11 | 45 | 1.6 | 1.6 | 0.00 | 0.43 | 0.43 | 97 | 1009.6 |
| 20260506152953 | 11 | 40 | 1.6 | 1.6 | 0.00 | 0.43 | 0.43 | 97 | 1009.4 |
| 20260506152450 | 11 | 44 | 0.0 | 3.2 | 0.00 | 0.43 | 0.43 | 97 | 1009.1 |
| 20260506151948 | 11 | 8 | 3.2 | 4.8 | 0.00 | 0.43 | 0.43 | 97 | 1009.5 |
| 20260506151445 | 11 | 52 | 0.0 | 3.2 | 0.00 | 0.43 | 0.43 | 97 | 1009.5 |
| 20260506150943 | 11 | 69 | 0.0 | 8.0 | 0.13 | 0.43 | 0.43 | 97 | 1009.4 |
| 20260506150438 | 11 | 34 | 0.0 | 4.8 | 0.00 | 0.41 | 0.41 | 97 | 1009.7 |
| 20260506145936 | 11 | 112 | 3.2 | 4.8 | 0.00 | 0.41 | 0.41 | 97 | 1009.5 |
| 20260506145432 | 11 | 129 | 3.2 | 8.0 | 0.18 | 0.41 | 0.41 | 97 | 1009.5 |
| 20260506144930 | 11 | 27 | 1.6 | 3.2 | 0.30 | 0.41 | 0.41 | 97 | 1009.6 |
| 20260506144426 | 11 | 26 | 1.6 | 3.2 | 0.13 | 0.38 | 0.38 | 97 | 1009.7 |
| 20260506143925 | 11 | 346 | 0.0 | 1.6 | 0.18 | 0.36 | 0.36 | 97 | 1009.7 |
| 20260506143421 | 11 | 42 | 1.6 | 4.8 | 0.18 | 0.36 | 0.36 | 97 | 1009.6 |
| 20260506142920 | 11 | 71 | 4.8 | 8.0 | 0.00 | 0.33 | 0.33 | 97 | 1010.0 |
| 20260506142417 | 11 | 49 | 3.2 | 3.2 | 0.13 | 0.33 | 0.33 | 97 | 1009.8 |
| 20260506141915 | 11 | 76 | 3.2 | 3.2 | 0.30 | 0.33 | 0.33 | 97 | 1010.1 |
| 20260506141413 | 10 | 115 | 4.8 | 8.0 | 0.36 | 0.30 | 0.30 | 97 | 1010.2 |
| 20260506140911 | 10 | 97 | 4.8 | 4.8 | 0.18 | 0.28 | 0.28 | 97 | 1010.4 |
| 20260506140408 | 10 | 122 | 3.2 | 4.8 | 0.13 | 0.25 | 0.25 | 97 | 1010.4 |
| 20260506135905 | 10 | 112 | 1.6 | 4.8 | 0.18 | 0.23 | 0.23 | 97 | 1010.5 |
| 20260506135401 | 10 | 80 | 1.6 | 3.2 | 0.18 | 0.23 | 0.23 | 97 | 1010.5 |
| 20260506134858 | 10 | 102 | 0.0 | 0.0 | 0.00 | 0.20 | 0.20 | 97 | 1010.7 |
| 20260506134354 | 10 | 100 | 3.2 | 3.2 | 0.00 | 0.20 | 0.20 | 97 | 1010.5 |
| 20260506133851 | 10 | 100 | 1.6 | 3.2 | 0.00 | 0.20 | 0.20 | 97 | 1010.4 |
| 20260506133348 | 10 | 81 | 0.0 | 0.0 | 0.13 | 0.20 | 0.20 | 97 | 1010.4 |
| 20260506132844 | 10 | 139 | 3.2 | 4.8 | 0.13 | 0.20 | 0.20 | 96 | 1010.1 |
| 20260506132341 | 10 | 72 | 4.8 | 4.8 | 0.00 | 0.18 | 0.18 | 96 | 1010.0 |
| 20260506131840 | 10 | 100 | 1.6 | 4.8 | 0.00 | 0.18 | 0.18 | 96 | 1010.3 |
| 20260506131335 | 10 | 76 | 3.2 | 4.8 | 0.00 | 0.18 | 0.18 | 96 | 1010.1 |
| 20260506130833 | 10 | 112 | 3.2 | 4.8 | 0.00 | 0.18 | 0.18 | 96 | 1010.2 |
| 20260506130329 | 10 | 80 | 4.8 | 4.8 | 0.00 | 0.18 | 0.18 | 96 | 1010.2 |
| 20260506125827 | 10 | 89 | 3.2 | 8.0 | 0.00 | 0.18 | 0.18 | 96 | 1010.4 |
| 20260506125325 | 10 | 149 | 4.8 | 4.8 | 0.00 | 0.18 | 0.18 | 96 | 1010.3 |
| 20260506124824 | 10 | 109 | 3.2 | 3.2 | 0.00 | 0.18 | 0.18 | 96 | 1010.5 |
| 20260506124320 | 10 | 125 | 1.6 | 3.2 | 0.00 | 0.18 | 0.18 | 96 | 1010.3 |
| 20260506123818 | 10 | 99 | 3.2 | 3.2 | 0.00 | 0.18 | 0.18 | 96 | 1010.6 |
| 20260506123316 | 10 | 41 | 0.0 | 0.0 | 0.00 | 0.18 | 0.18 | 96 | 1010.6 |
| 20260506122813 | 10 | 11 | 0.0 | 0.0 | 0.00 | 0.18 | 0.18 | 96 | 1010.5 |
| 20260506122310 | 10 | 33 | 0.0 | 0.0 | 0.00 | 0.18 | 0.18 | 96 | 1010.5 |
| 20260506121808 | 10 | 56 | 1.6 | 1.6 | 0.00 | 0.18 | 0.18 | 96 | 1010.5 |
| 20260506121305 | 10 | 12 | 0.0 | 0.0 | 0.00 | 0.18 | 0.18 | 96 | 1010.5 |
| 20260506120802 | 10 | 12 | 0.0 | 0.0 | 0.00 | 0.18 | 0.18 | 96 | 1010.7 |
| 20260506120300 | 10 | 17 | 0.0 | 0.0 | 0.18 | 0.18 | 0.18 | 96 | 1010.6 |
| 20260506115757 | 10 | 8 | 0.0 | 0.0 | 0.00 | 0.15 | 0.15 | 96 | 1010.7 |
| 20260506115255 | 10 | 8 | 0.0 | 0.0 | 0.13 | 0.15 | 0.15 | 96 | 1011.0 |
| 20260506114753 | 10 | 357 | 0.0 | 0.0 | 0.13 | 0.15 | 0.15 | 96 | 1011.0 |
| 20260506114250 | 10 | 323 | 0.0 | 0.0 | 0.00 | 0.13 | 0.13 | 96 | 1011.3 |
| 20260506113748 | 10 | 7 | 0.0 | 0.0 | 0.18 | 0.13 | 0.13 | 96 | 1011.2 |
| 20260506113246 | 10 | 305 | 0.0 | 4.8 | 0.18 | 0.13 | 0.13 | 96 | 1011.1 |
| 20260506112742 | 10 | 2 | 0.0 | 0.0 | 0.00 | 0.10 | 0.10 | 96 | 1011.2 |
| 20260506112239 | 10 | 347 | 0.0 | 0.0 | 0.00 | 0.10 | 0.10 | 96 | 1011.2 |
| 20260506111736 | 10 | 310 | 0.0 | 0.0 | 0.00 | 0.10 | 0.10 | 96 | 1011.2 |
| 20260506111235 | 10 | 314 | 0.0 | 0.0 | 0.13 | 0.10 | 0.10 | 96 | 1011.2 |
| 20260506110732 | 10 | 334 | 0.0 | 0.0 | 0.00 | 0.08 | 0.08 | 96 | 1010.9 |
| 20260506110230 | 10 | 5 | 0.0 | 0.0 | 0.00 | 0.08 | 0.08 | 96 | 1010.9 |
| 20260506105726 | 10 | 330 | 0.0 | 0.0 | 0.00 | 0.08 | 0.08 | 96 | 1010.9 |
| 20260506105223 | 10 | 321 | 0.0 | 0.0 | 0.00 | 0.08 | 0.08 | 96 | 1011.0 |
| 20260506104721 | 10 | 347 | 0.0 | 0.0 | 0.00 | 0.08 | 0.08 | 96 | 1010.9 |
| 20260506104218 | 10 | 2 | 0.0 | 0.0 | 0.18 | 0.08 | 0.08 | 96 | 1010.8 |
| 20260506103715 | 10 | 294 | 1.6 | 3.2 | 0.18 | 0.08 | 0.08 | 96 | 1011.0 |
| 20260506103211 | 10 | 264 | 0.0 | 4.8 | 0.00 | 0.05 | 0.05 | 96 | 1010.8 |
| 20260506102710 | 10 | 8 | 0.0 | 0.0 | 0.00 | 0.05 | 0.05 | 96 | 1010.9 |
| 20260506102208 | 10 | 321 | 0.0 | 0.0 | 0.00 | 0.05 | 0.05 | 96 | 1010.9 |
| 20260506101704 | 10 | 327 | 0.0 | 0.0 | 0.00 | 0.05 | 0.05 | 95 | 1010.7 |
| 20260506101200 | 9 | 298 | 0.0 | 0.0 | 0.13 | 0.05 | 0.05 | 95 | 1011.1 |
| 20260506100659 | 9 | 342 | 0.0 | 0.0 | 0.13 | 0.05 | 0.05 | 95 | 1011.1 |
| 20260506100156 | 10 | 0 | 0.0 | 0.0 | 0.00 | 0.03 | 0.03 | 95 | 1010.8 |
| 20260506095655 | 10 | 338 | 0.0 | 0.0 | 0.00 | 0.03 | 0.03 | 95 | 1011.3 |
| 20260506095151 | 10 | 166 | 3.2 | 3.2 | 0.00 | 0.03 | 0.03 | 95 | 1010.8 |
| 20260506094649 | 10 | 139 | 1.6 | 3.2 | 0.18 | 0.03 | 0.03 | 95 | 1011.0 |
| 20260506094146 | 10 | 316 | 3.2 | 3.2 | 0.18 | 0.03 | 0.03 | 95 | 1011.0 |
| 20260506093645 | 10 | 317 | 4.8 | 4.8 | 0.00 | 0.00 | 0.00 | 95 | 1011.3 |
| 20260506093142 | 10 | 29 | 1.6 | 4.8 | 0.00 | 0.00 | 0.00 | 95 | 1010.9 |
| 20260506092639 | 10 | 340 | 0.0 | 3.2 | 0.00 | 0.00 | 0.00 | 94 | 1010.8 |
| 20260506092136 | 10 | 251 | 3.2 | 3.2 | 0.00 | 0.00 | 0.00 | 94 | 1010.9 |
| 20260506091634 | 10 | 310 | 0.0 | 0.0 | 0.00 | 0.00 | 0.00 | 94 | 1010.8 |
| 20260506091131 | 10 | 88 | 0.0 | 0.0 | 0.00 | 0.00 | 0.00 | 94 | 1010.8 |
| 20260506090630 | 10 | 220 | 0.0 | 0.0 | 0.00 | 0.00 | 0.00 | 94 | 1010.9 |
| 20260506090125 | 9 | 1 | 0.0 | 0.0 | 0.00 | 0.00 | 0.00 | 94 | 1010.7 |
| 20260506085622 | 10 | 28 | 0.0 | 0.0 | 0.00 | 0.00 | 0.00 | 94 | 1010.8 |
| 20260506085119 | 10 | 25 | 0.0 | 0.0 | 0.00 | 0.00 | 0.00 | 94 | 1010.8 |
| 20260506084615 | 10 | 14 | 0.0 | 0.0 | 0.00 | 0.00 | 0.00 | 94 | 1010.9 |
| 20260506084112 | 10 | 10 | 0.0 | 0.0 | 0.00 | 0.00 | 0.00 | 94 | 1010.9 |
| 20260506083609 | 10 | 332 | 0.0 | 0.0 | 0.00 | 0.00 | 0.00 | 94 | 1011.1 |
| 20260506083107 | 10 | 354 | 0.0 | 0.0 | 0.00 | 0.00 | 0.00 | 94 | 1011.4 |
| 20260506082603 | 10 | 122 | 1.6 | 3.2 | 0.00 | 0.00 | 0.00 | 94 | 1010.9 |
| 20260506082059 | 10 | 196 | 0.0 | 0.0 | 0.00 | 0.00 | 0.00 | 94 | 1010.9 |
| 20260506081557 | 10 | 335 | 0.0 | 0.0 | 0.00 | 0.00 | 0.00 | 93 | 1011.1 |
| 20260506081054 | 10 | 308 | 0.0 | 0.0 | 0.00 | 0.00 | 0.00 | 93 | 1011.6 |
| 20260506080552 | 10 | 314 | 0.0 | 0.0 | 0.00 | 0.00 | 0.00 | 93 | 1011.3 |
| 20260506073032 | 10 | 336 | 0.0 | 3.2 | 0.00 | 0.00 | 0.00 | 93 | 1011.8 |
| 20260506072529 | 10 | 316 | 3.2 | 4.8 | 0.00 | 0.00 | 0.00 | 93 | 1011.8 |
| 20260506072027 | 10 | 308 | 3.2 | 4.8 | 0.00 | 0.00 | 0.00 | 93 | 1011.9 |
| 20260506071525 | 10 | 326 | 3.2 | 8.0 | 0.00 | 0.00 | 0.00 | 93 | 1011.9 |
| 20260506071022 | 10 | 296 | 1.6 | 8.0 | 0.00 | 0.00 | 0.00 | 93 | 1012.0 |
| 20260506070519 | 10 | 324 | 1.6 | 4.8 | 0.00 | 0.00 | 0.00 | 93 | 1011.9 |
| 20260506062456 | 10 | 323 | 3.2 | 4.8 | 0.00 | 0.00 | 0.00 | 92 | 1012.2 |
| 20260506061953 | 10 | 301 | 3.2 | 3.2 | 0.00 | 0.00 | 0.00 | 92 | 1012.1 |
| 20260506061449 | 10 | 297 | 3.2 | 4.8 | 0.00 | 0.00 | 0.00 | 91 | 1011.8 |
| 20260506060947 | 10 | 298 | 3.2 | 3.2 | 0.00 | 0.00 | 0.00 | 91 | 1012.1 |
| 20260506060445 | 10 | 330 | 1.6 | 3.2 | 0.00 | 0.00 | 0.00 | 91 | 1012.0 |
| 20260506050914 | 11 | 297 | 1.6 | 4.8 | 0.00 | 0.00 | 0.00 | 89 | 1012.5 |
| 20260506050412 | 12 | 311 | 8.0 | 9.7 | 0.00 | 0.00 | 0.00 | 88 | 1012.4 |
| 20260506044902 | 12 | 330 | 3.2 | 8.0 | 0.00 | 0.00 | 0.00 | 87 | 1012.5 |
| 20260506044400 | 12 | 329 | 6.4 | 11.3 | 0.00 | 0.00 | 0.00 | 87 | 1012.7 |
| 20260506043856 | 12 | 306 | 4.8 | 8.0 | 0.00 | 0.00 | 0.00 | 86 | 1012.7 |
| 20260506043354 | 12 | 325 | 1.6 | 3.2 | 0.00 | 0.00 | 0.00 | 86 | 1012.6 |
| 20260506042852 | 12 | 323 | 3.2 | 8.0 | 0.00 | 0.00 | 0.00 | 86 | 1012.9 |
| 20260506042351 | 12 | 315 | 3.2 | 8.0 | 0.00 | 0.00 | 0.00 | 86 | 1012.7 |
| 20260506041849 | 12 | 2 | 1.6 | 1.6 | 0.00 | 0.00 | 0.00 | 87 | 1012.6 |
| 20260506041346 | 12 | 346 | 0.0 | 0.0 | 0.00 | 0.00 | 0.00 | 87 | 1012.7 |
| 20260506040843 | 12 | 305 | 1.6 | 3.2 | 0.00 | 0.00 | 0.00 | 87 | 1012.7 |
| 20260506040340 | 12 | 339 | 0.0 | 3.2 | 0.00 | 0.00 | 0.00 | 88 | 1012.9 |
| 20260506035836 | 12 | 321 | 3.2 | 3.2 | 0.00 | 0.25 | 0.25 | 87 | 1012.9 |
| 20260506035334 | 12 | 317 | 0.0 | 0.0 | 0.00 | 0.25 | 0.25 | 86 | 1013.2 |
| 20260506034831 | 12 | 297 | 1.6 | 1.6 | 0.00 | 0.25 | 0.25 | 86 | 1013.0 |
| 20260506034328 | 12 | 323 | 0.0 | 0.0 | 0.00 | 0.25 | 0.25 | 86 | 1013.1 |
| 20260506033825 | 12 | 314 | 0.0 | 0.0 | 0.00 | 0.25 | 0.25 | 86 | 1012.9 |
| 20260506033322 | 12 | 324 | 0.0 | 0.0 | 0.00 | 0.25 | 0.25 | 85 | 1012.9 |
| 20260506032819 | 12 | 306 | 0.0 | 1.6 | 0.00 | 0.25 | 0.25 | 85 | 1013.1 |
| 20260506032316 | 12 | 131 | 1.6 | 1.6 | 0.00 | 0.25 | 0.25 | 84 | 1012.9 |
| 20260506031812 | 12 | 293 | 0.0 | 1.6 | 0.00 | 0.25 | 0.25 | 84 | 1012.9 |
| 20260506031310 | 12 | 20 | 0.0 | 1.6 | 0.00 | 0.25 | 0.25 | 84 | 1012.7 |
| 20260506030807 | 12 | 16 | 0.0 | 4.8 | 0.00 | 0.25 | 0.25 | 84 | 1012.5 |
| 20260506030305 | 12 | 296 | 1.6 | 8.0 | 0.00 | 0.25 | 0.25 | 83 | 1012.6 |
| 20260506025802 | 12 | 299 | 6.4 | 11.3 | 0.00 | 0.25 | 0.25 | 83 | 1012.7 |
| 20260506025258 | 12 | 305 | 8.0 | 9.7 | 0.00 | 0.25 | 0.25 | 83 | 1012.6 |
| 20260506024755 | 12 | 301 | 12.9 | 14.5 | 0.00 | 0.25 | 0.25 | 83 | 1012.5 |
| 20260506024252 | 12 | 328 | 8.0 | 11.3 | 0.00 | 0.25 | 0.25 | 83 | 1012.7 |
| 20260506023748 | 13 | 307 | 8.0 | 14.5 | 0.00 | 0.25 | 0.25 | 82 | 1012.6 |
| 20260506023245 | 12 | 252 | 9.7 | 16.1 | 0.00 | 0.25 | 0.25 | 82 | 1012.5 |
| 20260506022742 | 12 | 317 | 11.3 | 17.7 | 0.00 | 0.25 | 0.25 | 83 | 1012.5 |
| 20260506022240 | 12 | 260 | 11.3 | 16.1 | 0.00 | 0.25 | 0.25 | 83 | 1012.5 |
| 20260506021738 | 12 | 310 | 11.3 | 14.5 | 0.00 | 0.25 | 0.25 | 82 | 1012.3 |
| 20260506021234 | 13 | 325 | 9.7 | 12.9 | 0.00 | 0.25 | 0.25 | 82 | 1012.6 |
| 20260506020731 | 13 | 271 | 8.0 | 14.5 | 0.00 | 0.25 | 0.25 | 82 | 1012.6 |
| 20260506020229 | 13 | 284 | 9.7 | 14.5 | 0.00 | 0.25 | 0.25 | 82 | 1012.6 |
| 20260506015726 | 13 | 261 | 4.8 | 4.8 | 0.00 | 0.25 | 0.25 | 81 | 1012.7 |
| 20260506015224 | 13 | 284 | 9.7 | 16.1 | 0.00 | 0.25 | 0.25 | 81 | 1012.7 |
| 20260506014721 | 13 | 269 | 4.8 | 14.5 | 0.00 | 0.25 | 0.25 | 84 | 1012.3 |
| 20260506014217 | 13 | 273 | 8.0 | 17.7 | 0.00 | 0.25 | 0.25 | 84 | 1012.6 |
| 20260506013714 | 13 | 307 | 12.9 | 22.5 | 0.00 | 0.25 | 0.25 | 84 | 1012.1 |
| 20260506013211 | 14 | 311 | 14.5 | 16.1 | 0.00 | 0.25 | 0.25 | 84 | 1012.2 |
| 20260506012707 | 14 | 289 | 20.9 | 29.0 | 0.00 | 0.25 | 0.25 | 84 | 1012.1 |
| 20260506012205 | 14 | 313 | 11.3 | 20.9 | 0.00 | 0.25 | 0.25 | 85 | 1011.8 |
| 20260506011702 | 15 | 310 | 16.1 | 27.4 | 0.00 | 0.25 | 0.25 | 86 | 1011.9 |
| 20260506011158 | 15 | 278 | 14.5 | 20.9 | 0.00 | 0.25 | 0.25 | 87 | 1011.7 |
| 20260506010657 | 15 | 287 | 11.3 | 16.1 | 0.00 | 0.25 | 0.25 | 88 | 1011.6 |
| 20260506010153 | 15 | 306 | 16.1 | 25.7 | 0.00 | 0.25 | 0.25 | 89 | 1011.1 |
| 20260506005650 | 16 | 313 | 14.5 | 17.7 | 0.00 | 0.25 | 0.25 | 90 | 1011.1 |
| 20260506005147 | 16 | 318 | 14.5 | 17.7 | 0.00 | 0.25 | 0.25 | 90 | 1011.2 |
| 20260506004643 | 16 | 310 | 8.0 | 8.0 | 0.00 | 0.25 | 0.25 | 88 | 1010.8 |
| 20260506004141 | 16 | 294 | 0.0 | 0.0 | 0.00 | 0.25 | 0.25 | 86 | 1010.4 |
| 20260506003637 | 16 | 296 | 0.0 | 0.0 | 0.00 | 0.25 | 0.25 | 88 | 1010.2 |
| 20260506003133 | 16 | 296 | 0.0 | 0.0 | 0.00 | 0.25 | 0.25 | 88 | 1010.3 |
| 20260506002629 | 16 | 303 | 0.0 | 0.0 | 0.00 | 0.25 | 0.25 | 87 | 1010.2 |
| 20260506002125 | 16 | 295 | 0.0 | 0.0 | 0.00 | 0.25 | 0.25 | 87 | 1010.2 |
| 20260506001621 | 16 | 297 | 0.0 | 0.0 | 0.00 | 0.25 | 0.25 | 87 | 1010.1 |
| 20260506001119 | 16 | 220 | 1.6 | 1.6 | 0.00 | 0.25 | 0.25 | 87 | 1010.1 |
| 20260506000616 | 17 | 238 | 1.6 | 3.2 | 0.00 | 0.25 | 0.25 | 86 | 1010.4 |
| 20260506000113 | 17 | 223 | 3.2 | 3.2 | 0.00 | 0.25 | 0.25 | 84 | 1010.2 |
| 20260505235611 | 17 | 340 | 1.6 | 1.6 | 0.00 | 0.25 | 0.25 | 84 | 1009.9 |
| 20260505235108 | 17 | 285 | 1.6 | 1.6 | 0.00 | 0.25 | 0.25 | 86 | 1009.8 |
| 20260505234605 | 16 | 291 | 1.6 | 3.2 | 0.00 | 0.25 | 0.25 | 86 | 1009.8 |
| 20260505234101 | 17 | 349 | 0.0 | 0.0 | 0.00 | 0.25 | 0.25 | 86 | 1009.7 |
| 20260505233559 | 17 | 336 | 0.0 | 0.0 | 0.00 | 0.25 | 0.25 | 86 | 1009.6 |
| 20260505233056 | 17 | 12 | 3.2 | 3.2 | 0.00 | 0.25 | 0.25 | 85 | 1009.8 |
| 20260505232554 | 17 | 336 | 1.6 | 3.2 | 0.00 | 0.25 | 0.25 | 82 | 1009.6 |
| 20260505232051 | 18 | 338 | 0.0 | 0.0 | 0.00 | 0.25 | 0.25 | 80 | 1009.3 |
| 20260505231548 | 18 | 315 | 0.0 | 1.6 | 0.00 | 0.25 | 0.25 | 79 | 1009.0 |
| 20260505231047 | 18 | 318 | 0.0 | 1.6 | 0.00 | 0.25 | 0.25 | 79 | 1009.1 |
| 20260505230544 | 18 | 278 | 0.0 | 1.6 | 0.00 | 0.25 | 0.25 | 79 | 1009.2 |
| 20260505230040 | 18 | 312 | 0.0 | 3.2 | 0.00 | 0.25 | 0.25 | 79 | 1008.8 |
| 20260505225537 | 18 | 277 | 3.2 | 3.2 | 0.00 | 0.25 | 0.25 | 78 | 1009.3 |
| 20260505225033 | 18 | 298 | 3.2 | 8.0 | 0.00 | 0.25 | 0.25 | 78 | 1009.0 |
| 20260505224530 | 18 | 226 | 8.0 | 9.7 | 0.00 | 0.25 | 0.25 | 77 | 1009.0 |
| 20260505224028 | 18 | 230 | 3.2 | 12.9 | 0.00 | 0.25 | 0.25 | 77 | 1009.1 |
| 20260505223525 | 18 | 203 | 8.0 | 11.3 | 0.00 | 0.25 | 0.25 | 78 | 1008.7 |
| 20260505223021 | 18 | 174 | 8.0 | 11.3 | 0.00 | 0.25 | 0.25 | 79 | 1009.0 |
| 20260505222517 | 18 | 212 | 9.7 | 14.5 | 0.00 | 0.25 | 0.25 | 79 | 1009.2 |
| 20260505222013 | 17 | 213 | 9.7 | 16.1 | 0.00 | 0.25 | 0.25 | 80 | 1009.1 |
| 20260505221511 | 17 | 163 | 6.4 | 12.9 | 0.00 | 0.25 | 0.25 | 81 | 1009.1 |
| 20260505221007 | 17 | 204 | 6.4 | 14.5 | 0.00 | 0.25 | 0.25 | 83 | 1009.1 |
| 20260505220504 | 17 | 172 | 4.8 | 8.0 | 0.00 | 0.25 | 0.25 | 84 | 1009.2 |
| 20260505220002 | 16 | 216 | 4.8 | 4.8 | 0.00 | 0.25 | 0.25 | 85 | 1009.1 |
| 20260505215500 | 17 | 24 | 3.2 | 8.0 | 0.00 | 0.25 | 0.25 | 86 | 1009.3 |
| 20260505214957 | 17 | 183 | 0.0 | 4.8 | 0.00 | 0.25 | 0.25 | 85 | 1009.4 |
| 20260505214455 | 17 | 242 | 1.6 | 8.0 | 0.00 | 0.25 | 0.25 | 86 | 1009.4 |
| 20260505213952 | 17 | 296 | 1.6 | 3.2 | 0.00 | 0.25 | 0.25 | 86 | 1009.3 |
| 20260505213450 | 17 | 295 | 1.6 | 8.0 | 0.13 | 0.25 | 0.25 | 85 | 1009.2 |
| 20260505212946 | 16 | 235 | 6.4 | 9.7 | 0.00 | 0.23 | 0.23 | 87 | 1009.5 |
| 20260505212443 | 16 | 248 | 4.8 | 8.0 | 0.00 | 0.23 | 0.23 | 89 | 1009.7 |
| 20260505211939 | 16 | 294 | 3.2 | 4.8 | 0.00 | 0.23 | 0.23 | 89 | 1009.6 |
| 20260505211437 | 16 | 328 | 3.2 | 9.7 | 0.00 | 0.23 | 0.23 | 89 | 1009.6 |
| 20260505210933 | 16 | 299 | 8.0 | 11.3 | 0.00 | 0.23 | 0.23 | 88 | 1009.4 |
| 20260505210430 | 16 | 278 | 11.3 | 16.1 | 0.00 | 0.23 | 0.23 | 87 | 1009.3 |
| 20260505205927 | 16 | 304 | 9.7 | 22.5 | 0.18 | 0.23 | 0.23 | 89 | 1009.3 |
| 20260505205426 | 16 | 313 | 14.5 | 24.1 | 0.18 | 0.23 | 0.23 | 88 | 1009.1 |
| 20260505204922 | 16 | 271 | 14.5 | 27.4 | 0.18 | 0.20 | 0.20 | 88 | 1009.1 |
| 20260505204420 | 16 | 306 | 11.3 | 12.9 | 0.18 | 0.20 | 0.20 | 90 | 1009.2 |
| 20260505203917 | 16 | 280 | 3.2 | 11.3 | 0.00 | 0.18 | 0.18 | 90 | 1009.0 |
| 20260505203413 | 16 | 312 | 9.7 | 14.5 | 0.00 | 0.18 | 0.18 | 88 | 1008.3 |